CAPE
nan nan nan nan nan nan nan nan nan nan nan nan nan nan nan nan nan nan nan nan nan nan nan nan nan nan nan nan nan nan nan nan nan nan 0 2 3 3 4 4 4 4 4 4 4 4 4 5 5 5 5 6 8 8 10 10 10 12 15 16 16 18 20 22 22 24 23 25 26 26 24 21 18 18 16 18 19 19 20 22 22 25 27 30 30 39
nan nan nan nan nan nan nan nan nan nan nan nan nan nan nan nan nan nan nan nan nan nan nan nan nan nan nan nan nan nan nan nan nan nan 0 1 2 2 3 3 3 2 2 2 2 2 3 3 3 3 3 4 5 5 7 8 8 9 11 13 13 15 16 18 18 20 21 23 22 22 20 17 16 16 16 20 21 21 23 27 27 28 31 38 38 45
nan nan nan nan nan nan nan nan nan nan nan nan nan nan nan nan nan nan nan nan nan nan nan nan nan nan nan nan nan nan nan nan nan nan 0 1 1 1 1 1 1 1 1 1 1 1 1 2 2 2 3 3 4 4 5 6 6 7 8 9 9 11 13 14 14 16 16 17 16 16 14 13 16 16 19 24 24 24 26 27 27 31 35 41 41 52
nan nan nan nan nan nan nan nan nan nan nan nan nan nan nan nan nan nan nan nan nan nan nan nan nan nan nan nan nan nan nan nan nan nan 0 0 0 0 0 0 0 0 0 0 0 1 1 1 1 2 2 3 3 3 4 5 5 5 6 6 6 7 8 8 8 11 11 11 9 9 9 12 16 16 21 24 25 25 27 29 29 33 38 46 46 57
nan nan nan nan nan nan nan nan nan nan nan nan nan nan nan nan nan nan nan nan nan nan nan nan nan nan nan nan nan nan nan nan nan nan nan nan nan nan nan nan nan nan 0 0 0 1 1 2 2 2 3 3 3 3 4 5 5 5 5 5 5 6 6 7 7 8 8 8 8 8 10 12 16 16 19 25 27 27 28 32 32 35 39 51 51 59
nan nan nan nan nan nan nan nan nan nan nan nan nan nan nan nan nan nan nan nan nan nan nan nan nan nan nan nan nan nan nan nan nan nan nan nan nan nan nan nan nan nan 0 1 1 1 2 3 3 3 3 4 4 4 5 4 4 5 5 5 5 5 6 7 7 6 7 7 8 8 9 11 14 14 17 21 29 29 31 34 34 37 42 54 54 62
nan nan nan 0 0 nan nan nan nan nan nan nan nan nan nan nan nan nan nan nan nan nan nan nan nan nan nan nan nan nan nan nan nan nan nan nan nan nan nan nan nan 0 1 1 1 2 2 3 3 3 3 3 4 4 4 4 4 4 5 5 5 6 6 6 6 6 6 7 8 8 9 11 13 13 16 20 28 28 33 36 36 40 46 56 56 60
2 2 0 nan nan nan nan nan nan nan nan nan nan nan nan nan nan nan nan nan nan nan nan nan nan nan nan nan nan nan nan nan nan nan nan nan nan nan nan 0 0 0 1 1 1 1 2 2 2 2 2 2 2 2 3 3 3 3 3 3 3 3 4 4 4 5 6 8 10 10 13 15 17 17 19 21 25 25 31 38 38 46 52 54 54 58
5 0 nan nan nan nan nan nan nan nan nan nan nan nan nan nan nan nan nan nan nan nan nan nan nan nan nan nan nan nan nan nan nan nan nan nan nan nan nan 0 0 0 0 1 1 1 1 1 1 1 1 1 1 1 2 2 2 2 2 2 2 2 2 3 3 5 6 9 13 13 15 17 19 19 20 21 24 24 28 34 34 42 47 51 51 54
nan nan nan nan nan nan nan nan nan nan nan nan nan nan nan nan nan nan nan nan nan nan nan nan nan nan nan nan nan nan nan nan nan nan nan nan nan nan nan nan nan nan 0 0 0 1 1 0 0 0 0 1 1 1 1 1 1 1 1 1 1 1 2 3 3 5 8 12 16 16 18 18 19 19 20 21 21 21 24 29 29 34 38 46 46 51
nan nan nan 1 1 nan nan nan nan nan nan nan nan nan nan nan nan nan nan nan nan nan nan nan nan nan nan nan nan nan nan nan nan nan nan nan nan nan nan nan nan nan nan nan nan nan nan nan nan nan 0 0 0 0 0 0 0 0 0 0 0 1 2 4 4 7 11 14 17 17 18 19 19 19 20 21 20 20 22 25 25 28 33 39 39 47
nan 0 1 0 0 nan nan nan nan nan nan 0 0 0 nan nan nan nan nan nan nan nan nan nan nan nan nan nan nan nan nan nan nan nan nan nan nan nan nan nan nan nan nan nan nan nan nan nan nan nan nan nan nan nan nan nan nan nan nan 0 0 2 3 6 6 9 12 15 16 16 17 18 18 18 20 21 21 21 22 24 24 27 31 37 37 43
nan 0 0 0 0 0 nan nan nan nan 2 3 0 0 nan nan nan nan nan nan nan nan nan nan nan nan nan nan nan nan nan nan nan nan nan nan nan nan nan nan nan nan nan nan nan nan nan nan nan nan nan nan nan nan nan nan nan nan 0 1 1 3 5 7 7 9 12 13 14 14 16 18 20 20 21 21 22 22 23 24 24 28 32 35 35 39
nan 0 1 1 1 0 nan 0 1 1 2 2 nan nan nan nan nan nan nan nan nan nan nan nan nan nan nan nan nan nan nan nan nan nan nan nan nan nan nan nan nan nan nan nan nan nan nan nan nan nan nan nan nan nan nan nan nan 0 1 2 2 4 6 7 7 9 10 12 14 14 16 18 20 20 20 22 22 22 24 25 25 29 34 34 34 37
0 2 1 1 1 0 nan 1 2 2 2 0 nan nan nan nan nan nan nan 0 0 nan nan nan nan nan nan nan nan nan nan nan nan nan nan nan nan nan nan nan nan nan nan nan nan nan nan nan nan nan nan nan nan nan nan nan nan 1 2 2 2 4 5 7 7 9 10 13 15 15 16 18 20 20 20 20 23 23 24 26 26 29 34 35 35 37
2 1 0 0 0 1 0 2 2 2 1 nan nan nan nan 0 0 0 0 0 0 nan nan nan nan nan nan nan nan nan nan nan nan nan nan nan nan nan nan nan nan nan nan nan nan nan nan nan nan nan nan nan nan nan nan 0 0 1 1 2 2 3 5 7 7 9 10 13 14 14 15 17 18 18 20 20 21 21 22 24 24 29 34 34 34 36
2 1 0 1 1 1 2 2 1 1 0 nan nan nan nan nan 1 1 0 0 0 nan nan nan nan nan nan nan nan nan nan nan nan nan nan nan nan nan nan nan nan nan nan nan nan nan nan nan nan nan nan nan nan nan nan 0 0 0 1 2 2 3 5 7 7 10 11 12 12 12 14 14 16 16 19 19 21 21 23 25 25 29 36 36 36 38
0 nan 0 2 2 1 1 1 0 0 nan nan nan nan 1 1 1 1 0 nan nan nan nan nan nan nan nan nan nan nan nan nan nan nan nan nan nan nan nan nan nan nan nan nan nan nan nan nan nan nan nan nan nan nan nan 0 0 0 1 2 2 3 5 7 7 9 10 11 11 11 13 13 16 16 17 19 21 21 24 27 27 33 37 37 37 39
nan 2 5 2 2 1 nan 0 0 0 0 nan 0 0 1 1 0 0 nan nan nan nan nan nan nan 0 nan nan nan nan nan nan nan nan nan nan nan nan nan nan nan nan nan nan nan nan nan nan nan nan nan nan nan nan nan 0 0 1 2 3 3 4 5 6 6 7 9 9 10 10 11 13 14 14 17 19 22 22 24 31 31 34 36 38 38 42
3 5 2 0 0 nan nan 0 0 0 1 2 2 2 1 1 nan nan nan nan nan 0 0 0 0 1 nan nan nan nan nan nan nan nan nan nan nan nan nan nan nan nan nan nan nan nan nan nan nan nan nan nan nan nan 0 1 1 2 2 4 4 4 5 6 6 7 8 9 10 10 11 12 14 14 16 21 24 24 27 33 33 34 36 42 42 44
8 3 nan nan nan nan nan nan 0 0 2 5 1 1 1 0 nan nan nan nan nan 0 2 1 1 1 nan nan nan nan nan nan nan nan nan nan nan nan nan nan nan nan nan nan nan nan nan nan nan nan nan nan 0 0 0 1 1 2 4 5 5 5 6 6 6 7 8 10 11 11 12 14 16 16 19 21 27 27 29 33 33 36 40 46 46 47
5 0 nan nan nan nan nan nan 1 1 4 3 0 0 0 nan nan nan nan nan nan 0 0 nan nan nan nan nan nan nan nan nan nan nan nan nan nan nan nan nan nan nan nan nan nan nan nan nan nan nan nan 0 1 1 1 2 2 3 4 5 5 6 7 7 7 9 10 12 13 13 14 16 18 18 21 24 27 27 28 32 32 36 43 47 47 48
0 0 nan nan nan nan nan nan nan nan 2 2 1 1 nan nan nan nan nan nan nan nan nan nan nan nan nan nan nan nan nan nan nan nan nan nan nan nan nan nan nan nan nan nan nan nan nan nan nan nan nan 1 1 1 1 2 2 4 5 7 7 8 10 11 11 12 13 13 15 15 17 17 19 19 21 24 28 28 29 31 31 36 42 46 46 47
nan nan nan nan nan nan nan nan nan nan nan nan nan nan nan nan 0 0 1 nan nan nan nan nan nan nan nan nan nan nan nan nan nan nan nan nan nan nan nan nan nan nan nan nan nan nan nan nan nan nan nan 0 1 1 2 4 4 5 6 8 8 9 12 13 13 14 14 16 16 16 17 18 18 18 21 22 26 26 27 33 33 36 40 43 43 46
nan nan nan nan nan nan nan nan 0 0 nan 1 4 4 8 10 5 5 nan nan nan nan nan nan nan nan nan nan nan nan nan nan nan nan nan nan nan nan nan nan nan nan nan nan nan nan nan nan nan nan nan nan 1 1 3 4 4 5 7 9 9 10 13 14 14 16 16 16 16 16 17 19 21 21 24 26 29 29 32 35 35 35 40 42 42 45
1 0 0 5 5 24 47 56 46 46 28 18 29 29 17 0 nan nan nan nan nan nan nan nan nan nan nan nan nan nan nan nan nan nan nan nan nan nan nan nan nan nan nan nan nan nan nan nan nan nan nan nan nan nan 2 4 4 6 8 11 11 12 15 16 16 17 17 17 19 19 22 26 28 28 33 33 36 36 36 36 36 38 40 44 44 43
33 29 31 41 41 51 51 38 38 38 50 51 26 26 3 nan nan nan nan nan nan nan nan nan nan nan nan nan nan nan nan nan nan nan nan nan nan nan nan nan nan nan nan nan nan nan nan nan nan nan nan nan nan nan 0 3 3 6 9 11 11 13 14 16 16 16 18 22 25 25 27 31 35 35 36 38 40 40 41 42 42 44 44 42 42 42
27 24 24 36 36 38 35 35 38 38 41 40 37 37 13 nan nan nan nan nan nan nan nan nan nan nan nan nan nan nan nan nan nan nan nan nan nan nan nan nan nan nan nan nan nan nan 0 nan nan nan nan nan nan nan nan 3 3 7 8 11 11 13 15 17 17 20 22 25 28 28 31 34 36 36 39 41 43 43 45 45 45 46 44 34 34 13
19 23 31 34 34 32 29 23 13 13 14 18 26 26 11 nan nan nan nan nan nan nan nan nan nan nan nan nan nan nan nan nan nan nan nan nan nan nan nan nan nan nan nan nan nan nan nan nan nan nan nan nan nan nan nan 2 2 5 9 11 11 15 17 19 19 21 23 26 28 28 31 34 37 37 39 41 45 45 46 45 45 47 36 22 22 8
4 16 19 10 10 3 nan nan nan nan nan 4 11 11 1 nan nan nan nan nan nan nan nan nan nan nan nan nan nan nan nan nan nan nan nan nan nan nan nan nan nan nan nan nan nan nan nan nan nan nan nan nan nan nan nan nan nan nan nan 10 10 13 17 19 19 19 22 25 28 28 32 34 37 37 39 40 42 42 45 46 46 39 20 9 9 7
nan nan nan nan nan nan nan nan nan nan nan nan nan nan nan nan nan nan nan nan nan nan nan nan nan nan 0 nan nan nan nan nan nan nan nan nan nan nan nan nan nan nan nan nan nan nan nan nan nan nan nan nan nan nan nan nan nan nan nan nan nan nan 12 15 15 17 22 25 29 29 33 35 36 36 37 39 42 42 44 46 46 37 11 5 5 5
nan nan nan nan nan nan nan nan nan nan nan nan nan nan nan nan nan nan nan nan nan nan nan 0 0 0 0 0 nan nan nan nan nan nan nan nan nan nan nan nan nan nan nan 1 1 nan nan nan nan nan nan nan nan nan nan nan nan nan nan nan nan nan 0 8 8 10 8 19 26 26 29 30 31 31 34 36 39 39 41 42 42 38 15 5 5 5
nan nan nan nan nan nan nan nan nan nan nan nan nan nan nan nan nan nan nan nan nan nan nan 1 1 1 1 0 nan nan nan nan nan nan 2 nan nan nan nan nan nan 0 0 nan nan nan nan nan nan nan nan nan nan nan nan nan nan nan nan nan nan nan nan nan nan nan 0 5 9 9 23 25 27 27 32 35 37 37 38 41 41 42 34 5 5 6
nan nan nan nan nan nan nan nan nan nan nan nan nan nan nan nan nan nan nan nan nan 0 0 0 0 1 0 nan nan nan nan nan nan nan 3 nan nan nan 0 0 0 0 nan nan nan nan nan nan nan nan nan nan nan nan nan nan nan nan nan nan nan nan nan nan nan nan nan nan nan nan nan 0 19 19 21 28 33 33 37 42 42 46 51 28 28 14
nan nan nan nan nan nan nan nan nan nan nan nan nan nan nan nan nan nan nan nan nan nan 0 0 0 nan nan nan nan nan nan nan nan nan 5 1 1 1 1 0 0 nan nan nan nan nan nan nan nan 0 nan nan nan nan nan nan nan nan nan nan nan nan nan nan nan nan nan nan nan nan nan nan 0 0 5 19 31 31 39 44 44 47 53 59 59 44
nan nan nan nan nan nan nan nan nan nan nan nan nan nan nan nan nan nan nan nan nan nan nan nan nan nan nan 0 nan nan nan nan 1 1 5 1 0 0 0 0 0 nan nan nan nan nan nan nan nan 1 1 nan nan nan nan nan nan nan nan nan nan nan nan nan nan nan nan nan nan nan nan nan 0 0 2 23 36 36 41 42 42 48 50 56 56 53
nan nan nan nan nan nan nan nan nan nan nan nan nan nan nan nan nan nan nan nan nan nan nan nan nan nan 4 1 nan nan nan nan nan nan nan nan nan nan nan nan nan 1 nan nan nan nan nan nan nan nan nan nan nan nan nan nan nan nan nan nan nan nan nan nan nan nan nan nan nan nan nan 0 2 2 5 25 25 25 33 41 41 38 44 45 45 46
nan nan nan nan nan nan nan nan nan nan nan nan nan nan nan nan nan nan nan nan nan nan nan nan nan nan 0 6 0 0 nan nan nan nan nan nan nan nan nan nan nan 1 nan nan nan nan nan nan nan nan nan nan nan nan nan nan nan nan nan nan nan nan nan nan nan nan nan nan 0 0 3 1 nan nan 0 2 1 1 1 2 2 16 32 33 33 41
nan nan nan nan nan nan nan nan nan nan nan nan nan nan nan nan nan nan nan nan nan nan nan nan nan nan nan nan nan nan 0 nan nan nan nan nan nan nan nan nan nan nan nan nan nan nan nan nan nan nan nan nan nan nan nan nan nan nan nan nan nan nan nan nan nan nan nan nan 1 1 1 nan nan nan nan nan nan nan nan 0 0 4 5 3 3 17
nan nan nan nan nan nan nan nan nan nan nan nan nan nan 1 1 nan nan nan nan nan nan nan nan nan nan nan nan nan nan nan nan nan nan nan nan nan nan nan nan nan nan nan nan nan nan nan nan nan nan nan nan nan nan nan nan nan nan nan nan nan nan nan nan nan nan nan nan nan nan nan nan nan nan nan nan nan nan nan nan nan nan 2 nan nan nan
nan nan nan nan nan nan nan nan nan nan nan nan nan nan nan nan nan nan nan nan nan nan nan nan nan nan nan nan nan nan nan nan nan nan nan nan nan nan nan nan nan nan nan nan nan nan nan nan nan nan nan nan nan nan nan nan nan 0 2 nan nan nan nan nan nan nan nan nan nan nan nan 0 1 1 nan nan nan nan nan nan nan nan 0 nan nan nan
nan nan nan nan nan nan nan nan nan nan nan nan nan nan nan nan nan nan nan nan nan nan nan nan nan nan nan nan nan nan nan nan nan nan nan nan nan nan nan nan nan nan nan nan nan nan nan nan nan nan nan nan nan nan nan nan nan nan 0 nan nan nan 0 0 0 nan nan nan nan nan 0 nan nan nan nan nan nan nan nan nan nan 1 2 nan nan nan
nan nan nan nan nan nan nan nan nan nan 0 nan nan nan nan nan nan nan nan nan nan nan nan nan nan nan nan nan nan nan nan nan nan nan nan nan nan nan nan nan nan nan nan nan nan nan nan nan nan nan nan nan nan nan nan nan nan nan nan nan nan nan nan nan nan nan nan nan nan nan nan nan nan nan nan nan nan nan nan 0 0 10 7 nan nan nan
nan nan nan nan nan nan nan nan nan nan nan nan nan nan nan nan nan nan nan nan nan nan nan nan nan nan nan nan nan nan nan nan nan nan nan nan nan nan nan nan nan nan nan nan nan nan nan nan nan nan nan nan nan nan nan nan nan nan nan nan nan nan nan nan nan nan nan nan nan nan nan nan nan nan nan nan nan nan nan nan nan nan 0 nan nan nan
nan nan nan nan nan nan nan nan nan nan nan nan nan nan nan nan nan nan nan nan nan 0 nan nan nan nan nan nan nan nan nan nan nan nan nan nan nan nan nan nan nan nan nan nan nan nan nan nan nan nan nan nan nan nan nan nan nan nan nan nan nan nan nan nan nan nan nan nan nan nan nan nan nan nan nan nan nan nan nan nan nan nan nan nan nan nan
nan nan nan nan nan nan 0 nan nan nan nan nan nan nan nan nan nan nan nan nan nan nan nan 0 0 nan nan nan nan nan nan nan nan nan nan nan nan nan nan nan nan nan nan nan nan nan nan nan nan nan nan nan nan nan nan nan nan nan nan 1 1 nan nan nan nan nan nan nan nan nan nan nan nan nan nan nan nan nan nan nan nan nan nan nan nan nan
nan nan nan nan nan nan nan nan nan nan nan nan nan nan nan nan nan nan nan nan nan nan nan 1 1 nan nan nan nan nan nan nan nan nan nan nan nan nan nan nan nan nan nan nan nan nan nan nan nan nan nan nan nan nan nan nan nan nan nan nan nan nan nan nan nan nan nan nan nan nan nan nan nan nan nan nan nan nan nan nan nan nan nan nan nan nan
nan nan nan nan nan nan nan nan nan nan nan nan nan nan nan nan nan nan nan nan nan 0 1 nan nan nan nan nan nan nan nan nan nan nan nan nan nan nan nan nan nan nan nan nan nan nan nan nan nan nan nan nan nan nan nan nan nan nan nan nan nan nan nan nan nan nan nan nan nan nan nan nan nan nan nan nan nan nan nan nan nan nan nan nan nan nan
1 0 nan nan nan nan nan nan nan nan nan nan nan nan nan nan 6 6 0 nan nan nan nan nan nan nan nan nan nan nan nan nan nan nan nan nan nan nan nan nan nan nan nan nan nan nan nan nan nan nan nan nan nan nan nan nan nan nan nan nan nan nan nan nan nan nan nan nan nan nan nan nan nan nan nan nan nan nan nan nan nan nan nan nan nan nan
nan nan nan nan nan nan nan nan 0 0 0 0 nan nan nan nan nan nan nan 0 0 nan nan nan nan nan nan nan nan nan nan nan nan nan nan nan nan nan nan nan nan nan nan nan nan nan nan nan nan 0 8 1 nan nan nan nan nan nan nan nan nan nan nan nan nan nan nan nan nan nan nan nan nan nan nan nan nan nan nan nan nan nan nan nan nan nan
2 nan nan nan nan nan nan 0 0 0 0 0 nan nan nan 0 nan nan nan 0 0 nan nan nan nan nan nan nan nan nan nan nan nan nan nan nan nan nan nan nan nan nan nan nan nan nan nan nan nan nan 0 18 4 4 nan nan nan nan nan nan nan nan nan nan nan nan nan nan nan nan nan nan nan nan nan nan nan nan nan nan nan nan nan nan nan nan
CIN
nan nan nan nan nan nan nan nan nan nan nan nan nan nan nan nan nan nan nan nan nan nan nan nan nan nan nan nan nan nan nan nan nan nan -0 -0 -0 -0 -0 -0 -0 -0 -0 -0 -0 -0 -0 -0 -0 -0 -0 -0 -0 -0 -0 -0 -0 -0 -0 -0 -0 -0 -0 -0 -0 -0 -0 -0 -0 -0 -0 -0 -0 -0 -0 -0 -0 -0 -0 -0 -0 -0 -0 -0 -0 -0
nan nan nan nan nan nan nan nan nan nan nan nan nan nan nan nan nan nan nan nan nan nan nan nan nan nan nan nan nan nan nan nan nan nan -0 -0 -0 -0 -0 -0 -0 -0 -0 -0 -0 -0 -0 -0 -0 -0 -0 -0 -0 -0 -0 -0 -0 -0 -0 -0 -0 -0 -0 -0 -0 -0 -0 -0 -0 -0 -0 -0 -0 -0 -0 -0 -0 -0 -0 -0 -0 -0 -0 -0 -0 -0
nan nan nan nan nan nan nan nan nan nan nan nan nan nan nan nan nan nan nan nan nan nan nan nan nan nan nan nan nan nan nan nan nan nan -0 -0 -0 -0 -0 -0 -0 -0 -0 -0 -0 -0 -0 -0 -0 -0 -0 -0 -0 -0 -0 -0 -0 -0 -0 -0 -0 -0 -0 -0 -0 -0 -0 -0 -0 -0 -0 -0 -0 -0 -0 -0 -0 -0 -0 -0 -0 -0 -0 -0 -0 -0
nan nan nan nan nan nan nan nan nan nan nan nan nan nan nan nan nan nan nan nan nan nan nan nan nan nan nan nan nan nan nan nan nan nan -0 -0 -0 -0 -0 -0 -0 -0 -0 -0 -0 -0 -0 -0 -0 -0 -0 -0 -0 -0 -0 -0 -0 -0 -0 -0 -0 -0 -0 -0 -0 -0 -0 -0 -0 -0 -0 -0 -0 -0 -0 -0 -0 -0 -0 -0 -0 -0 -0 -0 -0 -0
nan nan nan nan nan nan nan nan nan nan nan nan nan nan nan nan nan nan nan nan nan nan nan nan nan nan nan nan nan nan nan nan nan nan nan nan nan nan nan nan nan nan -0 -0 -0 -0 -0 -0 -0 -0 -0 -0 -0 -0 -0 -0 -0 -0 -0 -0 -0 -0 -0 -0 -0 -0 -0 -0 -0 -0 -0 -0 -0 -0 -0 -0 -0 -0 -0 -0 -0 -0 -0 -0 -0 -0
nan nan nan nan nan nan nan nan nan nan nan nan nan nan nan nan nan nan nan nan nan nan nan nan nan nan nan nan nan nan nan nan nan nan nan nan nan nan nan nan nan nan -0 -0 -0 -0 -0 -0 -0 -0 -0 -0 -0 -0 -0 -0 -0 -0 -0 -0 -0 -0 -0 -0 -0 -0 -0 -0 -0 -0 -0 -0 -0 -0 -0 -0 -0 -0 -0 -0 -0 -0 -0 -0 -0 -0
nan nan nan -1 -1 nan nan nan nan nan nan nan nan nan nan nan nan nan nan nan nan nan nan nan nan nan nan nan nan nan nan nan nan nan nan nan nan nan nan nan nan -0 -0 -0 -0 -0 -0 -0 -0 -0 -0 -0 -0 -0 -0 -0 -0 -0 -0 -0 -0 -0 -0 -0 -0 -0 -0 -0 -0 -0 -0 -0 -0 -0 -0 -0 -0 -0 -0 -0 -0 -0 -0 -0 -0 -0
-1 -2 -2 nan nan nan nan nan nan nan nan nan nan nan nan nan nan nan nan nan nan nan nan nan nan nan nan nan nan nan nan nan nan nan nan nan nan nan nan -0 -0 -0 -0 -0 -0 -0 -0 -0 -0 -0 -0 -0 -0 -0 -0 -0 -0 -0 -0 -0 -0 -0 -0 -0 -0 -0 -0 -0 -0 -0 -0 -0 -0 -0 -0 -0 -0 -0 -0 -0 -0 -0 -0 -0 -0 -0
-2 -4 nan nan nan nan nan nan nan nan nan nan nan nan nan nan nan nan nan nan nan nan nan nan nan nan nan nan nan nan nan nan nan nan nan nan nan nan nan -0 -0 -0 -0 -0 -0 -0 -0 -0 -0 -0 -0 -0 -0 -0 -0 -0 -0 -0 -0 -0 -0 -0 -0 -0 -0 -0 -0 -0 -0 -0 -0 -0 -0 -0 -0 -0 -0 -0 -0 -0 -0 -0 -0 -0 -0 -0
nan nan nan nan nan nan nan nan nan nan nan nan nan nan nan nan nan nan nan nan nan nan nan nan nan nan nan nan nan nan nan nan nan nan nan nan nan nan nan nan nan nan -0 -0 -0 -0 -0 -0 -0 -0 -0 -0 -0 -0 -0 -0 -0 -0 -0 -0 -0 -0 -0 -0 -0 -0 -0 -0 -0 -0 -0 -0 -0 -0 -0 -0 -0 -0 -0 -0 -0 -0 -0 -0 -0 -0
nan nan nan -9 -9 nan nan nan nan nan nan nan nan nan nan nan nan nan nan nan nan nan nan nan nan nan nan nan nan nan nan nan nan nan nan nan nan nan nan nan nan nan nan nan nan nan nan nan nan nan -0 -0 -0 -0 -0 -0 -0 -0 -0 -0 -0 -0 -0 -0 -0 -0 -0 -0 -0 -0 -0 -0 -0 -0 -0 -0 -0 -0 -0 -0 -0 -0 -0 -0 -0 -0
nan -8 -6 -7 -7 nan nan nan nan nan nan -21 -4 -4 nan nan nan nan nan nan nan nan nan nan nan nan nan nan nan nan nan nan nan nan nan nan nan nan nan nan nan nan nan nan nan nan nan nan nan nan nan nan nan nan nan nan nan nan nan -0 -0 -0 -0 -0 -0 -0 -0 -0 -0 -0 -0 -0 -0 -0 -0 -0 -0 -0 -0 -0 -0 -0 -0 -0 -0 -0
nan -11 -7 -9 -9 -9 nan nan nan nan -5 -3 -3 -3 nan nan nan nan nan nan nan nan nan nan nan nan nan nan nan nan nan nan nan nan nan nan nan nan nan nan nan nan nan nan nan nan nan nan nan nan nan nan nan nan nan nan nan nan -0 -0 -0 -0 -0 -0 -0 -0 -0 -0 -0 -0 -0 -0 -0 -0 -0 -0 -0 -0 -0 -0 -0 -0 -0 -0 -0 -0
nan -8 -6 -7 -7 -9 nan -5 -5 -5 -4 -5 nan nan nan nan nan nan nan nan nan nan nan nan nan nan nan nan nan nan nan nan nan nan nan nan nan nan nan nan nan nan nan nan nan nan nan nan nan nan nan nan nan nan nan nan nan -0 -0 -0 -0 -0 -0 -0 -0 -0 -0 -0 -0 -0 -0 -0 -0 -0 -0 -0 -0 -0 -0 -0 -0 -0 -0 -0 -0 -0
-5 -4 -6 -5 -5 -6 nan -6 -4 -4 -4 -9 nan nan nan nan nan nan nan -3 -3 nan nan nan nan nan nan nan nan nan nan nan nan nan nan nan nan nan nan nan nan nan nan nan nan nan nan nan nan nan nan nan nan nan nan nan nan -0 -0 -0 -0 -0 -0 -0 -0 -0 -0 -0 -0 -0 -0 -0 -0 -0 -0 -0 -0 -0 -0 -0 -0 -0 -0 -0 -0 -0
-4 -6 -7 -6 -6 -4 -6 -6 -5 -5 -7 nan nan nan nan -5 -4 -4 -3 -4 -4 nan nan nan nan nan nan nan nan nan nan nan nan nan nan nan nan nan nan nan nan nan nan nan nan nan nan nan nan nan nan nan nan nan nan -0 -0 -0 -0 -0 -0 -0 -0 -0 -0 -0 -0 -0 -0 -0 -0 -0 -0 -0 -0 -0 -0 -0 -0 -0 -0 -0 -0 -0 -0 -0
-5 -9 -7 -5 -5 -4 -5 -6 -8 -8 -10 nan nan nan nan nan -5 -5 -5 -6 -6 nan nan nan nan nan nan nan nan nan nan nan nan nan nan nan nan nan nan nan nan nan nan nan nan nan nan nan nan nan nan nan nan nan nan -0 -0 -0 -0 -0 -0 -0 -0 -0 -0 -0 -0 -0 -0 -0 -0 -0 -0 -0 -0 -0 -0 -0 -0 -0 -0 -0 -0 -0 -0 -0
-10 nan -9 -4 -4 -4 -7 -7 -8 -8 nan nan nan nan -8 -8 -7 -7 -7 nan nan nan nan nan nan nan nan nan nan nan nan nan nan nan nan nan nan nan nan nan nan nan nan nan nan nan nan nan nan nan nan nan nan nan nan -0 -0 -0 -0 -0 -0 -0 -0 -0 -0 -0 -0 -0 -0 -0 -0 -0 -0 -0 -0 -0 -0 -0 -0 -0 -0 -0 -0 -0 -0 -0
nan -6 -4 -3 -3 -6 nan -4 -4 -4 -4 nan -7 -7 -8 -8 -8 -8 nan nan nan nan nan nan nan -8 nan nan nan nan nan nan nan nan nan nan nan nan nan nan nan nan nan nan nan nan nan nan nan nan nan nan nan nan nan -0 -0 -0 -0 -0 -0 -0 -0 -0 -0 -0 -0 -0 -0 -0 -0 -0 -0 -0 -0 -0 -0 -0 -0 -0 -0 -0 -0 -0 -0 -0
-4 -4 -8 -11 -11 nan nan -3 -2 -2 -2 -4 -7 -7 -8 -9 nan nan nan nan nan -11 -11 -7 -7 -6 nan nan nan nan nan nan nan nan nan nan nan nan nan nan nan nan nan nan nan nan nan nan nan nan nan nan nan nan -0 -0 -0 -0 -0 -0 -0 -0 -0 -0 -0 -0 -0 -0 -0 -0 -0 -0 -0 -0 -0 -0 -0 -0 -0 -0 -0 -0 -0 -0 -0 -0
-3 -6 nan nan nan nan nan nan -4 -4 -2 -4 -10 -10 -10 -10 nan nan nan nan nan -11 -6 -4 -4 -6 nan nan nan nan nan nan nan nan nan nan nan nan nan nan nan nan nan nan nan nan nan nan nan nan nan nan -0 -0 -0 -0 -0 -0 -0 -0 -0 -0 -0 -0 -0 -0 -0 -0 -0 -0 -0 -0 -0 -0 -0 -0 -0 -0 -0 -0 -0 -0 -0 -0 -0 -0
-5 -9 nan nan nan nan nan nan -5 -5 -3 -7 -13 -13 -9 nan nan nan nan nan nan -6 -3 nan nan nan nan nan nan nan nan nan nan nan nan nan nan nan nan nan nan nan nan nan nan nan nan nan nan nan nan -0 -0 -0 -0 -0 -0 -0 -0 -0 -0 -0 -0 -0 -0 -0 -0 -0 -0 -0 -0 -0 -0 -0 -0 -0 -0 -0 -0 -0 -0 -0 -0 -0 -0 -0
-14 -12 nan nan nan nan nan nan nan nan -7 -10 -9 -9 nan nan nan nan nan nan nan nan nan nan nan nan nan nan nan nan nan nan nan nan nan nan nan nan nan nan nan nan nan nan nan nan nan nan nan nan nan -0 -0 -0 -0 -0 -0 -0 -0 -0 -0 -0 -0 -0 -0 -0 -0 -0 -0 -0 -0 -0 -0 -0 -0 -0 -0 -0 -0 -0 -0 -0 -0 -0 -0 -0
nan nan nan nan nan nan nan nan nan nan nan nan nan nan nan nan -1 -1 -5 nan nan nan nan nan nan nan nan nan nan nan nan nan nan nan nan nan nan nan nan nan nan nan nan nan nan nan nan nan nan nan nan -0 -0 -0 -0 -0 -0 -0 -0 -0 -0 -0 -0 -0 -0 -0 -0 -0 -0 -0 -0 -0 -0 -0 -0 -0 -0 -0 -0 -0 -0 -0 -0 -0 -0 -0
nan nan nan nan nan nan nan nan -2 -2 nan -20 -16 -16 -1 -0 -0 -0 nan nan nan nan nan nan nan nan nan nan nan nan nan nan nan nan nan nan nan nan nan nan nan nan nan nan nan nan nan nan nan nan nan nan -0 -0 -0 -0 -0 -0 -0 -0 -0 -0 -0 -0 -0 -0 -0 -0 -0 -0 -0 -0 -0 -0 -0 -0 -0 -0 -0 -0 -0 -0 -0 -0 -0 -0
-4 -9 -13 -5 -5 -0 -0 -0 -0 -0 -2 -11 -5 -5 -2 -13 nan nan nan nan nan nan nan nan nan nan nan nan nan nan nan nan nan nan nan nan nan nan nan nan nan nan nan nan nan nan nan nan nan nan nan nan nan nan -0 -0 -0 -0 -0 -0 -0 -0 -0 -0 -0 -0 -0 -0 -0 -0 -0 -0 -0 -0 -0 -0 -0 -0 -0 -0 -0 -0 -0 -0 -0 -0
-0 -0 -0 -0 -0 -0 -0 -0 -0 -0 -0 -0 -3 -3 -7 nan nan nan nan nan nan nan nan nan nan nan nan nan nan nan nan nan nan nan nan nan nan nan nan nan nan nan nan nan nan nan nan nan nan nan nan nan nan nan -0 -0 -0 -0 -0 -0 -0 -0 -0 -0 -0 -0 -0 -0 -0 -0 -0 -0 -0 -0 -0 -0 -0 -0 -0 -0 -0 -0 -0 -0 -0 -0
-0 -0 -0 -0 -0 -0 -0 -0 -0 -0 -0 -0 -0 -0 -0 nan nan nan nan nan nan nan nan nan nan nan nan nan nan nan nan nan nan nan nan nan nan nan nan nan nan nan nan nan nan nan -1 nan nan nan nan nan nan nan nan -0 -0 -0 -0 -0 -0 -0 -0 -0 -0 -0 -0 -0 -0 -0 -0 -0 -0 -0 -0 -0 -0 -0 -0 -0 -0 -0 -0 -0 -0 -12
-0 -0 -0 -0 -0 -0 -0 -0 -0 -0 -0 -0 -0 -0 -0 nan nan nan nan nan nan nan nan nan nan nan nan nan nan nan nan nan nan nan nan nan nan nan nan nan nan nan nan nan nan nan nan nan nan nan nan nan nan nan nan -0 -0 -0 -0 -0 -0 -0 -0 -0 -0 -0 -0 -0 -0 -0 -0 -0 -0 -0 -0 -0 -0 -0 -0 -0 -0 -0 -0 -2 -2 -17
-8 -0 -0 -1 -1 -7 nan nan nan nan nan -0 -0 -0 -0 nan nan nan nan nan nan nan nan nan nan nan nan nan nan nan nan nan nan nan nan nan nan nan nan nan nan nan nan nan nan nan nan nan nan nan nan nan nan nan nan nan nan nan nan -0 -0 -0 -0 -0 -0 -0 -0 -0 -0 -0 -0 -0 -0 -0 -0 -0 -0 -0 -0 -0 -0 -0 -6 -18 -18 -20
nan nan nan nan nan nan nan nan nan nan nan nan nan nan nan nan nan nan nan nan nan nan nan nan nan nan -1 nan nan nan nan nan nan nan nan nan nan nan nan nan nan nan nan nan nan nan nan nan nan nan nan nan nan nan nan nan nan nan nan nan nan nan -0 -0 -0 -0 -0 -0 -0 -0 -0 -0 -0 -0 -0 -0 -0 -0 -0 -0 -0 -0 -11 -19 -19 -21
nan nan nan nan nan nan nan nan nan nan nan nan nan nan nan nan nan nan nan nan nan nan nan -0 -0 -1 -2 -2 nan nan nan nan nan nan nan nan nan nan nan nan nan nan nan -9 -9 nan nan nan nan nan nan nan nan nan nan nan nan nan nan nan nan nan -6 -0 -0 -0 -0 -0 -0 -0 -0 -0 -0 -0 -0 -0 -0 -0 -0 -0 -0 -0 -4 -17 -17 -16
nan nan nan nan nan nan nan nan nan nan nan nan nan nan nan nan nan nan nan nan nan nan nan -1 -1 -1 -3 -5 nan nan nan nan nan nan -0 nan nan nan nan nan nan -7 -7 nan nan nan nan nan nan nan nan nan nan nan nan nan nan nan nan nan nan nan nan nan nan nan -11 -2 -0 -0 -0 -0 -0 -0 -0 -0 -0 -0 -0 -0 -0 -0 -0 -13 -13 -12
nan nan nan nan nan nan nan nan nan nan nan nan nan nan nan nan nan nan nan nan nan -9 -11 -6 -6 -2 -2 nan nan nan nan nan nan nan -0 nan nan nan -6 -6 -6 -6 nan nan nan nan nan nan nan nan nan nan nan nan nan nan nan nan nan nan nan nan nan nan nan nan nan nan nan nan nan -14 -0 -0 -0 -0 -0 -0 -0 -0 -0 -0 -0 -0 -0 -5
nan nan nan nan nan nan nan nan nan nan nan nan nan nan nan nan nan nan nan nan nan nan -15 -15 -15 nan nan nan nan nan nan nan nan nan -0 -4 -3 -3 -3 -5 -5 nan nan nan nan nan nan nan nan -1 nan nan nan nan nan nan nan nan nan nan nan nan nan nan nan nan nan nan nan nan nan nan -25 -25 -5 -0 -0 -0 -0 -0 -0 -0 -0 -0 -0 -0
nan nan nan nan nan nan nan nan nan nan nan nan nan nan nan nan nan nan nan nan nan nan nan nan nan nan nan -4 nan nan nan nan -0 -0 -0 -4 -6 -6 -3 -3 -3 nan nan nan nan nan nan nan nan -0 -0 nan nan nan nan nan nan nan nan nan nan nan nan nan nan nan nan nan nan nan nan nan -25 -25 -15 -0 -0 -0 -0 -0 -0 -0 -0 -0 -0 -0
nan nan nan nan nan nan nan nan nan nan nan nan nan nan nan nan nan nan nan nan nan nan nan nan nan nan -0 -6 nan nan nan nan nan nan nan nan nan nan nan nan nan -0 nan nan nan nan nan nan nan nan nan nan nan nan nan nan nan nan nan nan nan nan nan nan nan nan nan nan nan nan nan -23 -15 -15 -7 -0 -0 -0 -0 -0 -0 -0 -0 -0 -0 -0
nan nan nan nan nan nan nan nan nan nan nan nan nan nan nan nan nan nan nan nan nan nan nan nan nan nan -4 -0 -5 -5 nan nan nan nan nan nan nan nan nan nan nan -1 nan nan nan nan nan nan nan nan nan nan nan nan nan nan nan nan nan nan nan nan nan nan nan nan nan nan -14 -14 -7 -12 nan nan -19 -10 -15 -15 -11 -10 -10 -0 -0 -0 -0 -0
nan nan nan nan nan nan nan nan nan nan nan nan nan nan nan nan nan nan nan nan nan nan nan nan nan nan nan nan nan nan -7 nan nan nan nan nan nan nan nan nan nan nan nan nan nan nan nan nan nan nan nan nan nan nan nan nan nan nan nan nan nan nan nan nan nan nan nan nan -9 -9 -10 nan nan nan nan nan nan nan nan -18 -18 -8 -7 -10 -10 -0
nan nan nan nan nan nan nan nan nan nan nan nan nan nan -1 -3 nan nan nan nan nan nan nan nan nan nan nan nan nan nan nan nan nan nan nan nan nan nan nan nan nan nan nan nan nan nan nan nan nan nan nan nan nan nan nan nan nan nan nan nan nan nan nan nan nan nan nan nan nan nan nan nan nan nan nan nan nan nan nan nan nan nan -8 nan nan nan
nan nan nan nan nan nan nan nan nan nan nan nan nan nan nan nan nan nan nan nan nan nan nan nan nan nan nan nan nan nan nan nan nan nan nan nan nan nan nan nan nan nan nan nan nan nan nan nan nan nan nan nan nan nan nan nan nan -2 -0 nan nan nan nan nan nan nan nan nan nan nan nan -16 -15 -15 nan nan nan nan nan nan nan nan -11 nan nan nan
nan nan nan nan nan nan nan nan nan nan nan nan nan nan nan nan nan nan nan nan nan nan nan nan nan nan nan nan nan nan nan nan nan nan nan nan nan nan nan nan nan nan nan nan nan nan nan nan nan nan nan nan nan nan nan nan nan nan -3 nan nan nan -10 -10 -10 nan nan nan nan nan -14 nan nan nan nan nan nan nan nan nan nan -9 -3 nan nan nan
nan nan nan nan nan nan nan nan nan nan -6 nan nan nan nan nan nan nan nan nan nan nan nan nan nan nan nan nan nan nan nan nan nan nan nan nan nan nan nan nan nan nan nan nan nan nan nan nan nan nan nan nan nan nan nan nan nan nan nan nan nan nan nan nan nan nan nan nan nan nan nan nan nan nan nan nan nan nan nan -11 -11 -0 -0 nan nan nan
nan nan nan nan nan nan nan nan nan nan nan nan nan nan nan nan nan nan nan nan nan nan nan nan nan nan nan nan nan nan nan nan nan nan nan nan nan nan nan nan nan nan nan nan nan nan nan nan nan nan nan nan nan nan nan nan nan nan nan nan nan nan nan nan nan nan nan nan nan nan nan nan nan nan nan nan nan nan nan nan nan nan -9 nan nan nan
nan nan nan nan nan nan nan nan nan nan nan nan nan nan nan nan nan nan nan nan nan -4 nan nan nan nan nan nan nan nan nan nan nan nan nan nan nan nan nan nan nan nan nan nan nan nan nan nan nan nan nan nan nan nan nan nan nan nan nan nan nan nan nan nan nan nan nan nan nan nan nan nan nan nan nan nan nan nan nan nan nan nan nan nan nan nan
nan nan nan nan nan nan -5 nan nan nan nan nan nan nan nan nan nan nan nan nan nan nan nan -10 -10 nan nan nan nan nan nan nan nan nan nan nan nan nan nan nan nan nan nan nan nan nan nan nan nan nan nan nan nan nan nan nan nan nan nan -7 -7 nan nan nan nan nan nan nan nan nan nan nan nan nan nan nan nan nan nan nan nan nan nan nan nan nan
nan nan nan nan nan nan nan nan nan nan nan nan nan nan nan nan nan nan nan nan nan nan nan -6 -6 nan nan nan nan nan nan nan nan nan nan nan nan nan nan nan nan nan nan nan nan nan nan nan nan nan nan nan nan nan nan nan nan nan nan nan nan nan nan nan nan nan nan nan nan nan nan nan nan nan nan nan nan nan nan nan nan nan nan nan nan nan
nan nan nan nan nan nan nan nan nan nan nan nan nan nan nan nan nan nan nan nan nan -9 -2 nan nan nan nan nan nan nan nan nan nan nan nan nan nan nan nan nan nan nan nan nan nan nan nan nan nan nan nan nan nan nan nan nan nan nan nan nan nan nan nan nan nan nan nan nan nan nan nan nan nan nan nan nan nan nan nan nan nan nan nan nan nan nan
-2 -7 nan nan nan nan nan nan nan nan nan nan nan nan nan nan -0 -0 -5 nan nan nan nan nan nan nan nan nan nan nan nan nan nan nan nan nan nan nan nan nan nan nan nan nan nan nan nan nan nan nan nan nan nan nan nan nan nan nan nan nan nan nan nan nan nan nan nan nan nan nan nan nan nan nan nan nan nan nan nan nan nan nan nan nan nan nan
nan nan nan nan nan nan nan nan -3 -3 -2 -3 nan nan nan nan nan nan nan -10 -10 nan nan nan nan nan nan nan nan nan nan nan nan nan nan nan nan nan nan nan nan nan nan nan nan nan nan nan nan -23 -10 -13 nan nan nan nan nan nan nan nan nan nan nan nan nan nan nan nan nan nan nan nan nan nan nan nan nan nan nan nan nan nan nan nan nan nan
-1 nan nan nan nan nan nan -3 -2 -2 -3 -4 nan nan nan -9 nan nan nan -11 -11 nan nan nan nan nan nan nan nan nan nan nan nan nan nan nan nan nan nan nan nan nan nan nan nan nan nan nan nan nan -17 -0 -13 -13 nan nan nan nan nan nan nan nan nan nan nan nan nan nan nan nan nan nan nan nan nan nan nan nan nan nan nan nan nan nan nan nan
Wind_Speed
2 2 2 2 2 3 3 3 3 3 4 5 5 5 6 7 6 7 8 8 7 6 6 6 6 7 8 11 14 15 16 16 16 17 17 17 17 17 18 18 18 18 18 18 17 17 17 17 17 17 17 17 17 17 17 18 18 18 18 18 18 18 18 19 19 19 19 19 19 19 19 19 19 19 19 19 19 19 19 19 19 19 20 20 20 20
2 2 2 2 2 2 3 3 2 3 4 5 6 6 6 6 6 6 6 6 6 6 6 6 6 6 7 9 11 14 15 16 16 17 17 17 18 18 18 18 18 18 18 18 17 17 17 17 17 17 17 17 18 18 18 18 18 18 19 19 19 19 19 19 19 19 19 19 19 19 19 19 19 19 19 19 19 19 20 20 20 20 20 20 20 20
2 2 2 2 2 2 3 3 3 2 3 4 6 6 6 6 6 6 5 5 5 5 5 5 6 6 6 7 10 13 15 16 17 17 17 18 18 18 18 18 18 18 18 18 18 17 17 18 18 18 18 18 18 18 18 19 19 19 19 19 19 19 19 19 19 19 19 19 19 19 19 19 19 19 20 20 20 20 20 20 20 20 20 20 20 21
2 3 3 2 2 2 2 3 3 3 4 4 5 6 6 5 5 5 5 5 5 5 5 5 5 5 5 5 8 11 15 16 17 17 18 18 18 18 18 18 18 18 18 18 18 18 18 18 18 18 18 18 19 19 19 19 19 19 19 19 19 19 19 20 20 20 20 20 19 19 19 19 19 20 20 20 20 20 20 20 20 20 20 21 21 21
2 3 3 2 2 2 2 3 3 3 4 4 5 5 5 4 5 5 5 5 5 5 5 4 4 4 4 4 7 11 15 16 17 18 18 18 18 18 17 17 17 17 17 18 18 18 18 18 18 19 19 19 19 19 19 19 20 20 20 20 20 20 20 20 20 20 20 20 20 20 20 20 20 20 20 20 20 20 20 20 21 21 21 21 21 21
2 3 3 3 3 3 3 3 3 3 4 4 4 4 4 4 4 4 4 4 4 4 4 3 3 4 4 5 7 11 14 16 17 17 17 17 17 17 17 17 17 17 17 18 18 18 18 19 19 19 19 19 20 20 20 20 20 20 20 20 20 20 20 20 20 20 20 20 20 20 20 20 20 20 20 20 20 21 21 21 21 21 21 21 21 22
3 3 3 3 3 3 3 3 3 3 3 3 4 4 4 4 4 4 4 3 3 3 3 3 3 3 4 5 7 10 12 14 15 15 15 16 16 16 16 16 17 17 17 18 18 18 19 19 19 19 20 20 20 20 20 20 20 20 20 20 20 20 20 20 20 20 20 20 20 20 20 20 21 21 21 21 21 21 21 21 21 21 21 22 22 22
4 3 3 3 3 3 3 3 2 2 3 4 4 5 5 4 3 3 3 3 2 3 3 4 4 4 3 4 6 7 8 9 10 10 11 12 13 13 14 15 16 17 18 18 18 19 19 19 19 20 20 20 20 20 20 20 20 20 20 20 20 20 20 20 20 20 20 21 21 21 21 21 21 21 21 21 21 21 21 21 21 22 22 22 22 22
4 4 4 4 4 4 4 3 2 2 3 4 4 5 5 4 4 3 3 3 3 3 3 4 5 5 4 4 4 5 7 7 7 7 7 7 8 9 12 14 15 16 17 18 18 19 19 19 20 20 20 20 20 20 20 20 20 20 20 20 20 20 20 20 21 21 21 21 21 21 21 21 21 21 21 21 21 21 21 21 22 22 22 22 22 23
4 4 4 4 3 3 4 4 3 3 3 3 4 4 4 4 5 5 5 4 4 3 3 4 5 6 5 4 4 4 6 7 8 9 10 9 10 11 12 13 13 14 17 18 18 19 19 19 20 20 20 20 20 20 20 20 20 20 20 20 20 20 21 21 21 21 21 21 21 21 21 21 22 22 22 22 22 22 22 22 22 23 23 23 23 23
4 4 4 3 3 3 3 3 3 3 3 3 3 3 3 3 4 6 8 7 6 5 4 4 4 5 6 5 5 5 5 5 6 7 9 10 11 12 13 13 13 14 16 17 17 18 18 19 19 19 19 19 19 19 19 19 19 19 20 20 20 21 21 21 21 21 21 22 22 22 22 22 22 22 22 22 23 23 23 23 23 23 23 23 24 24
3 3 3 3 3 3 3 3 3 3 3 3 3 3 2 3 3 5 7 8 8 7 6 5 4 4 5 5 5 5 5 4 4 4 4 6 7 7 8 9 10 11 13 13 14 15 16 18 18 18 18 18 18 19 19 19 19 20 20 21 21 21 21 21 21 22 22 22 22 22 22 23 23 23 23 23 23 23 23 23 23 23 23 24 24 24
3 3 3 3 3 3 3 3 3 3 3 3 4 4 4 4 3 4 5 6 7 7 7 6 5 4 4 4 4 4 4 4 4 3 3 3 4 4 4 5 6 6 7 8 8 9 12 15 16 16 17 17 17 18 19 19 19 20 21 21 21 21 22 22 22 22 22 23 23 23 23 23 23 23 24 24 24 24 24 24 24 24 24 24 24 24
3 3 3 3 3 3 3 4 4 4 3 3 3 4 4 4 4 4 6 6 6 6 6 7 6 5 4 4 3 3 3 3 3 4 4 4 3 3 4 5 5 5 5 6 6 7 9 11 11 12 14 15 16 17 17 18 19 20 21 21 22 22 22 22 23 23 23 23 23 23 24 24 24 24 24 24 24 24 24 24 24 24 24 24 24 24
3 3 3 3 3 3 3 3 4 4 3 3 3 3 4 5 5 5 5 6 7 6 7 7 7 6 4 3 3 2 1 2 3 4 5 5 4 4 4 5 6 6 5 6 6 7 9 8 7 8 9 11 12 14 16 18 20 21 21 22 22 23 23 23 23 23 24 24 24 24 24 24 24 24 24 24 24 24 24 24 24 24 24 24 24 24
3 2 3 3 4 4 3 3 3 3 3 3 3 4 5 5 5 5 6 7 7 6 6 7 7 6 4 3 2 0 1 2 4 5 7 7 5 4 4 5 6 6 6 6 6 6 6 6 6 7 8 11 14 17 20 20 21 22 23 23 23 24 24 24 24 24 24 24 24 24 24 24 25 25 25 25 25 25 25 25 25 25 25 25 25 25
2 2 3 4 4 4 3 3 3 3 3 3 4 4 4 5 5 5 6 6 6 5 5 6 6 6 5 3 1 0 2 3 5 7 8 8 6 5 4 5 6 7 7 6 6 6 6 6 6 7 7 12 16 19 21 22 22 23 24 24 24 24 24 24 24 25 25 25 25 25 25 25 25 25 25 25 25 25 25 25 25 25 25 25 25 25
2 2 3 3 3 3 3 3 3 3 4 4 4 4 4 4 5 5 6 5 5 5 5 5 5 5 6 5 4 2 3 5 6 7 8 9 7 5 4 4 5 7 7 7 6 5 6 6 6 7 10 16 19 21 22 23 24 24 24 25 25 25 25 25 25 25 25 25 25 25 25 25 25 25 25 25 25 25 25 25 25 25 25 25 25 25
3 3 3 3 2 3 3 3 3 4 4 3 4 4 4 5 5 6 6 6 5 5 5 5 5 5 5 6 5 5 5 5 6 7 8 9 8 6 4 4 5 6 6 6 6 6 6 6 8 11 15 19 21 22 23 24 24 25 25 25 25 25 25 25 26 26 26 26 26 26 26 26 26 26 26 26 26 26 26 26 26 26 26 26 26 26
3 3 2 2 2 3 4 4 4 4 4 4 4 4 5 5 6 6 6 5 5 5 4 5 6 6 6 7 7 6 5 5 5 6 7 8 8 6 4 4 5 6 6 6 5 5 6 6 8 11 15 18 20 22 23 24 25 25 25 25 26 26 26 26 26 26 26 26 26 26 26 26 26 26 26 26 26 26 26 26 26 26 26 26 26 26
3 3 1 1 2 3 4 4 5 5 5 5 4 4 5 6 6 6 6 5 5 4 4 4 5 6 6 7 8 7 6 5 5 5 5 6 6 5 4 4 5 6 7 6 6 5 6 6 6 8 11 16 19 22 23 24 25 25 26 26 26 26 26 26 26 26 26 26 26 26 26 26 26 26 26 26 26 26 26 26 26 26 26 26 26 26
3 3 2 2 3 4 5 6 6 7 7 5 4 4 5 5 6 6 5 4 4 4 5 5 6 7 6 8 8 7 5 4 4 5 5 6 7 6 4 3 4 5 6 6 5 5 5 6 6 8 11 17 20 22 24 25 25 25 26 26 26 26 26 26 26 26 26 26 26 26 26 26 27 27 27 27 27 27 27 27 27 27 27 27 27 27
4 4 4 4 5 5 6 6 6 6 6 5 5 6 5 5 5 5 5 4 4 4 5 6 6 7 7 7 7 6 4 3 3 3 4 6 7 6 4 4 4 5 6 6 6 6 5 6 6 8 11 17 20 22 24 24 25 25 25 25 25 25 25 25 25 25 25 26 26 26 26 27 27 27 27 27 27 27 27 27 27 28 28 28 28 28
5 5 5 5 5 6 5 5 5 5 4 5 5 5 5 5 4 4 3 3 4 5 5 6 7 7 6 6 6 5 3 2 2 2 3 5 6 6 4 4 5 6 7 6 5 6 6 6 6 7 9 15 18 21 23 24 24 24 24 24 24 24 24 24 25 25 25 25 26 26 27 27 27 27 28 28 28 28 28 28 28 28 28 28 28 28
6 6 5 6 7 7 7 6 6 6 5 5 4 4 4 4 4 4 4 4 5 5 6 7 7 7 6 6 5 4 3 2 1 2 3 4 5 6 4 4 5 6 7 6 5 5 6 7 7 7 7 11 15 19 21 22 23 23 23 23 23 23 24 24 24 25 25 26 26 26 27 27 28 28 28 28 28 28 28 28 28 28 28 28 28 28
9 9 8 9 10 12 12 12 12 12 11 8 5 4 4 4 5 5 5 5 5 6 7 7 8 8 6 5 4 4 3 2 1 2 2 4 5 6 5 4 4 5 7 6 6 6 7 8 8 7 6 8 12 16 19 20 21 22 22 22 23 23 24 24 25 25 26 26 26 27 27 27 27 28 28 28 28 28 28 28 28 28 28 28 28 27
14 14 14 14 14 14 15 15 15 15 14 12 10 8 6 5 6 6 7 6 5 5 6 8 8 8 6 5 4 4 3 2 2 2 2 4 5 6 5 4 4 5 8 7 6 7 9 9 8 7 6 7 8 11 15 17 19 20 21 22 23 23 24 25 25 26 26 26 26 27 27 27 27 27 27 27 28 28 28 28 28 28 28 27 25 22
15 14 14 14 14 14 13 13 12 12 12 12 13 13 9 6 6 7 7 6 5 5 6 7 8 7 6 5 5 5 4 3 3 2 2 3 4 5 4 4 4 6 7 7 7 8 9 9 8 7 6 6 6 7 11 14 17 19 20 21 23 24 24 25 25 25 26 26 26 26 26 27 27 27 27 27 27 27 27 28 28 27 26 22 17 14
12 12 11 11 10 10 9 8 9 9 11 12 13 13 9 5 5 6 7 5 5 5 7 7 7 7 7 6 6 6 5 4 3 2 1 2 4 4 4 5 5 6 7 7 7 7 6 6 5 5 5 5 5 5 7 10 13 15 17 19 21 22 23 24 24 25 25 25 26 26 26 26 26 27 27 27 27 27 27 28 27 24 20 16 13 12
6 6 5 5 5 5 5 5 6 7 10 12 13 12 9 5 4 5 5 4 4 4 6 7 7 7 7 7 7 6 4 3 2 1 1 2 4 5 4 5 6 6 6 6 7 6 5 4 3 3 4 5 6 5 6 8 9 10 11 14 16 18 20 22 23 24 24 25 25 25 26 26 26 26 26 26 27 27 27 28 26 21 14 12 11 11
1 1 1 1 2 2 2 3 4 5 7 9 10 9 7 4 4 4 4 3 3 4 6 6 6 6 6 6 6 5 4 2 1 1 2 3 4 5 5 6 6 6 5 5 6 7 7 5 3 3 4 6 6 7 7 8 8 8 8 9 10 12 16 19 20 21 22 23 23 24 25 25 26 26 26 26 27 27 27 28 25 20 13 12 11 11
1 1 1 1 1 2 2 2 3 3 4 5 5 5 5 5 4 4 3 3 3 4 5 6 6 6 6 6 6 6 5 3 3 4 4 4 4 5 5 6 7 6 5 4 5 6 7 6 5 5 5 6 7 7 8 8 8 7 7 7 7 9 13 15 17 18 18 19 21 22 23 24 25 26 26 26 26 27 27 27 25 21 14 12 11 11
1 1 2 2 2 2 2 2 2 3 3 3 3 4 4 4 5 4 4 3 4 4 5 6 6 7 7 7 7 7 6 5 5 6 6 5 4 4 5 6 7 7 6 5 5 6 7 7 7 7 7 7 6 6 7 8 8 8 7 7 7 8 11 12 12 13 13 15 16 18 20 22 23 24 25 25 26 26 26 27 25 22 17 13 12 12
1 2 2 2 2 2 2 2 2 3 3 3 4 4 4 4 4 4 4 4 4 4 4 5 6 6 7 7 8 8 7 6 6 7 7 5 5 5 6 6 7 7 7 6 6 6 7 8 9 8 8 7 6 6 7 7 8 7 6 7 7 7 8 9 9 10 11 12 12 13 14 16 18 19 21 22 23 23 24 25 25 25 23 17 14 13
1 2 2 2 2 3 3 3 3 3 3 4 4 4 4 4 4 4 4 4 4 4 4 5 5 6 7 7 8 8 8 6 6 7 8 6 5 5 6 6 7 7 7 7 7 7 7 9 9 10 9 9 8 6 5 6 6 7 6 7 7 8 8 8 9 10 11 11 11 10 10 11 12 13 15 17 19 21 23 24 25 26 25 23 20 16
2 3 3 3 3 3 4 4 4 4 4 4 4 4 4 3 3 3 3 3 4 4 5 5 5 6 7 8 8 9 9 8 8 8 9 7 6 6 6 6 7 7 8 8 8 7 8 9 10 11 11 11 9 7 6 5 6 6 7 7 8 8 9 9 9 10 10 10 10 10 10 10 10 11 12 16 19 22 23 24 25 25 26 25 24 22
2 3 3 3 3 3 4 3 3 3 3 3 3 3 3 3 3 3 3 4 4 5 5 6 7 7 9 9 9 9 10 9 9 9 10 8 7 7 7 7 7 8 8 8 9 9 9 10 10 10 10 10 9 8 8 7 7 7 7 8 8 9 9 9 10 10 10 10 11 10 10 11 11 11 12 16 19 20 22 23 23 24 25 25 25 25
3 4 4 3 2 2 3 3 3 3 3 2 3 3 3 3 4 4 4 4 5 5 5 6 6 8 11 12 12 12 11 11 11 11 11 9 8 8 8 8 8 8 8 8 9 9 9 10 11 11 10 9 9 10 10 10 10 9 9 9 9 9 9 9 10 10 10 10 11 12 12 12 11 11 12 13 13 13 14 14 16 18 20 21 22 24
3 3 3 3 3 3 3 3 3 3 2 3 3 3 4 4 5 5 4 4 4 5 5 6 6 7 9 11 12 13 13 13 13 12 11 10 8 8 8 9 9 9 9 8 9 9 9 10 10 11 11 11 11 11 10 10 10 11 11 10 10 9 9 9 10 10 10 11 12 13 12 11 10 10 10 10 10 10 11 11 11 12 13 13 15 18
3 3 3 3 3 3 3 3 3 3 2 3 4 5 4 4 4 4 4 4 4 5 5 6 6 7 8 9 10 11 12 11 11 11 10 8 7 7 8 9 9 9 9 9 8 9 9 10 11 11 12 12 12 12 11 11 11 12 13 11 10 8 9 9 10 10 10 10 11 11 11 10 10 10 10 10 10 10 10 10 10 10 11 10 10 12
3 3 3 3 3 3 2 2 2 3 3 4 4 4 3 3 3 3 4 4 4 5 5 6 6 6 6 7 7 8 9 10 10 10 9 9 9 9 8 8 9 9 9 9 9 9 10 10 11 12 12 12 13 13 13 13 13 14 15 13 12 12 12 12 11 11 10 10 9 10 11 11 11 11 11 11 11 11 10 11 11 11 11 10 10 10
4 4 3 3 2 2 2 3 3 4 4 3 3 3 2 3 3 3 4 4 4 4 4 4 5 5 6 7 7 7 7 8 9 10 10 11 11 10 9 9 8 8 8 9 10 10 10 11 11 12 12 12 12 13 13 13 13 13 13 13 14 14 14 12 10 9 9 9 9 10 11 11 11 11 11 11 11 11 11 11 13 13 13 11 10 10
4 3 3 3 2 3 3 4 4 4 3 3 3 3 2 2 3 4 5 5 5 5 5 5 5 6 7 7 7 6 5 6 8 9 10 10 10 10 10 10 9 9 8 9 10 10 10 11 11 11 11 12 12 14 15 15 14 13 12 13 13 12 10 10 9 8 9 10 10 10 10 10 10 11 11 11 11 11 11 12 14 15 15 12 11 10
4 3 3 3 3 3 4 3 3 3 3 3 3 3 2 3 3 5 5 5 5 5 5 5 5 6 7 8 7 6 5 5 6 7 9 10 10 10 10 10 10 10 9 9 9 10 10 11 11 11 11 11 12 13 14 14 14 13 12 12 12 12 11 11 11 12 11 11 11 11 11 11 11 11 11 11 11 11 11 11 12 12 13 12 12 11
2 2 3 3 3 3 3 3 3 3 3 4 4 3 3 3 4 5 5 5 6 6 5 5 5 6 6 7 7 7 6 5 5 5 6 9 11 12 10 9 9 9 9 9 9 10 10 11 11 11 11 11 12 13 14 14 15 15 14 13 13 13 13 13 13 13 13 12 12 12 12 11 11 11 11 11 11 11 11 12 12 12 12 11 11 12
2 3 3 3 3 3 4 3 3 3 3 4 4 3 3 3 3 4 5 5 6 5 5 5 5 5 7 7 7 7 7 7 6 5 5 5 6 7 8 8 8 8 8 9 9 10 10 11 11 11 11 12 12 13 14 14 14 14 14 13 13 13 13 13 13 12 13 13 13 12 12 12 11 11 12 12 12 12 12 12 12 12 12 11 11 12
2 3 3 3 3 3 3 3 3 3 4 5 4 4 3 3 3 4 5 5 5 5 5 5 5 6 7 7 7 7 8 8 8 7 6 5 5 5 6 7 8 9 9 9 9 10 11 11 12 12 12 12 13 13 13 13 13 14 14 13 12 12 13 12 12 12 12 12 13 13 12 11 11 12 13 13 13 12 12 11 12 12 12 11 11 11
3 4 3 3 3 3 3 3 3 4 5 5 4 4 4 4 5 5 5 5 5 5 6 5 6 6 7 7 8 8 9 9 9 8 7 7 6 6 6 6 7 8 9 9 10 11 12 12 12 13 12 12 13 14 14 13 13 13 13 12 12 12 13 13 12 12 12 12 13 13 11 10 11 12 13 13 13 13 12 12 12 11 11 11 12 12
3 3 3 3 3 3 4 4 4 4 5 5 4 4 4 5 6 6 5 5 5 5 5 6 7 7 7 7 8 8 9 9 9 8 7 7 6 6 7 7 7 7 8 9 9 10 10 11 12 12 12 12 13 14 14 13 13 12 12 11 11 11 12 12 12 12 12 12 13 12 10 10 10 12 13 14 14 14 14 13 13 12 12 11 12 12
3 2 2 3 3 4 4 4 4 5 5 5 5 5 4 4 4 5 5 5 5 5 5 6 7 7 8 8 8 8 9 9 8 8 8 6 6 7 7 8 8 9 8 8 8 8 7 8 8 10 11 12 13 13 13 13 13 12 12 11 10 10 10 12 12 12 12 13 13 13 12 11 11 11 11 13 15 16 15 15 14 13 11 11 11 12
3 3 3 3 4 4 4 4 5 5 5 5 5 5 5 5 4 4 4 4 5 5 5 6 6 7 8 8 9 9 9 9 9 9 9 7 7 7 8 8 9 9 9 9 8 7 7 6 7 7 8 11 13 13 11 12 12 12 12 11 9 9 9 11 11 12 13 13 13 13 13 12 11 11 11 12 13 15 15 15 14 13 12 11 11 12
Wind_Direction
298 307 312 322 321 315 309 307 309 311 310 313 314 313 310 310 307 303 300 298 295 292 292 293 293 294 298 306 310 314 316 318 319 319 319 319 320 320 320 320 319 319 318 317 317 316 316 316 316 315 315 315 315 314 314 313 313 313 313 312 312 312 311 311 311 310 310 309 309 309 308 308 308 307 306 304 303 301 300 299 298 297 296 295 293 292
303 306 307 313 313 308 303 304 303 303 306 310 310 310 309 307 305 302 298 293 289 287 289 291 292 292 292 298 306 312 314 317 318 318 319 319 320 320 320 319 318 318 317 317 316 316 316 316 315 315 315 314 314 313 313 313 312 312 312 311 311 311 310 310 309 309 309 308 308 308 308 307 306 305 304 302 301 300 300 299 298 297 296 295 294 293
312 309 304 298 296 297 300 305 303 297 298 301 302 303 303 302 301 300 299 296 292 288 286 287 290 292 291 293 304 311 314 316 317 318 319 319 319 319 319 318 317 317 316 316 316 315 315 315 314 314 314 313 313 312 312 311 311 311 311 310 310 309 309 309 308 308 307 307 306 306 306 305 304 303 302 301 301 300 300 299 298 298 297 296 295 294
305 302 301 300 295 293 293 303 304 303 300 298 298 297 296 295 295 294 293 292 291 290 287 283 284 288 291 293 302 309 314 316 317 318 319 319 319 318 317 317 316 316 315 315 314 314 314 313 313 312 312 312 311 311 310 310 310 309 309 309 308 308 308 307 307 306 306 306 305 304 304 303 302 302 301 301 301 300 300 299 298 298 297 296 295 294
296 296 302 308 310 307 302 304 305 306 304 301 298 296 294 291 290 290 290 289 288 288 289 286 285 286 292 296 305 310 314 316 317 318 318 318 317 317 316 315 315 314 314 313 312 312 312 311 311 311 310 310 310 309 309 308 308 308 308 307 307 307 306 306 306 305 305 304 304 303 303 302 302 301 301 300 300 300 299 298 298 297 297 296 295 294
294 297 305 310 313 312 312 311 310 310 308 305 301 297 293 289 287 289 291 293 292 293 294 294 292 290 291 295 305 310 314 315 316 317 316 316 315 315 314 313 313 312 311 311 311 310 310 310 310 309 309 308 308 308 308 307 307 307 307 306 306 306 305 305 305 304 304 303 303 302 302 301 301 300 300 299 299 298 298 297 297 296 296 295 294 294
293 297 306 309 309 309 309 309 312 314 315 311 309 305 299 293 289 287 287 291 294 298 301 301 299 296 293 294 302 308 312 313 314 314 314 313 313 312 312 311 311 310 310 310 309 309 309 309 308 308 308 307 307 307 306 306 306 306 306 305 305 305 305 304 304 303 303 302 302 301 301 300 299 299 298 298 297 297 296 296 296 295 295 294 294 293
293 302 311 309 308 307 307 306 309 312 313 311 311 310 308 303 298 294 291 293 297 304 309 310 308 305 299 294 298 303 306 308 309 309 310 310 309 310 310 309 309 309 309 309 309 309 308 308 308 307 307 307 306 306 306 305 305 305 305 305 305 304 304 303 303 302 301 301 300 300 299 299 298 297 297 296 296 296 295 295 295 294 294 294 293 293
298 307 309 306 305 307 309 308 308 307 304 302 303 305 307 310 311 312 312 310 310 311 315 315 314 311 305 298 296 298 299 302 303 304 306 306 307 308 308 309 309 309 309 308 308 308 308 308 307 307 306 306 305 305 305 305 305 305 304 304 304 303 303 302 301 300 300 299 299 298 298 297 297 296 296 296 296 295 295 295 294 294 293 293 293 293
298 300 299 297 299 303 307 308 306 301 289 285 285 290 298 313 321 324 323 319 317 316 315 314 314 312 310 306 301 298 299 300 301 303 305 306 307 308 308 309 309 308 308 308 308 308 308 307 307 306 306 305 305 305 305 305 304 304 304 303 303 302 301 300 300 299 298 298 297 297 297 297 297 297 297 296 296 296 295 295 294 294 293 293 293 293
292 289 289 292 295 298 299 300 301 297 287 281 280 284 299 327 333 329 323 320 319 319 316 311 310 310 312 311 308 304 301 300 300 302 304 304 305 306 306 307 306 306 306 307 307 307 307 307 306 305 305 304 304 304 304 304 304 303 303 302 301 300 299 299 298 297 297 297 297 297 297 297 297 297 297 297 296 296 296 295 295 294 294 293 293 292
286 285 285 290 295 299 299 297 297 297 294 296 302 311 327 346 342 328 318 316 317 318 316 311 306 304 303 305 305 304 301 299 298 299 301 302 303 303 305 305 305 305 305 305 305 306 306 305 305 304 304 304 304 304 303 303 302 301 301 300 299 298 298 297 297 297 297 297 297 297 298 297 297 297 297 296 296 295 295 294 294 294 293 292 292 291
279 278 279 285 292 300 304 305 306 307 308 316 324 328 329 334 331 320 308 307 309 312 313 311 307 302 294 290 290 293 296 297 299 301 304 304 304 304 305 304 304 304 304 304 303 302 303 303 303 302 303 302 302 302 302 301 300 299 298 298 297 297 297 297 297 297 298 298 298 298 298 297 297 296 296 295 295 294 294 293 293 293 292 292 291 291
275 272 275 285 293 300 305 306 307 308 311 323 331 331 325 324 319 311 304 303 304 306 308 307 305 302 296 283 275 273 284 298 304 308 309 308 308 310 311 307 306 305 305 303 300 298 300 301 301 300 300 300 300 299 298 298 297 297 297 297 297 297 298 298 298 298 298 298 298 297 297 296 296 295 295 295 294 294 293 293 293 292 291 291 291 290
269 269 277 288 295 299 301 301 301 304 311 326 334 331 321 316 312 308 307 306 307 308 309 305 303 300 293 279 267 264 291 313 317 316 315 312 312 316 318 311 306 304 304 301 298 297 299 298 296 294 294 294 294 294 294 295 296 297 297 298 298 298 298 298 298 298 298 298 297 297 296 296 295 295 295 294 294 293 293 293 292 292 291 291 290 290
258 264 280 290 293 293 292 296 301 307 317 327 329 323 315 311 310 308 306 305 306 309 310 310 309 306 297 279 262 262 8 337 326 320 317 313 314 321 327 314 308 304 302 299 297 296 297 293 290 288 289 291 293 295 296 297 298 299 299 299 299 299 299 298 298 298 297 297 297 297 296 296 295 295 294 294 293 293 292 292 292 291 290 290 289 289
254 268 283 286 287 287 291 299 308 314 319 320 317 311 306 304 304 304 302 301 303 305 306 310 312 312 310 309 309 46 32 347 331 321 316 311 311 318 327 313 304 301 300 297 295 295 296 293 291 290 289 293 295 297 299 299 299 299 299 299 299 299 298 298 298 298 297 297 297 296 296 295 295 295 294 294 293 293 292 292 291 291 290 289 289 288
264 275 280 280 283 291 306 312 314 313 312 308 304 299 295 294 295 296 294 294 294 296 298 301 302 304 307 309 315 343 15 351 333 320 313 307 307 311 319 305 297 294 295 294 294 293 293 292 292 293 293 297 298 299 300 300 299 299 299 299 299 298 298 298 298 298 297 297 296 296 296 295 295 294 294 293 293 293 292 292 291 290 289 289 288 288
276 276 272 279 291 305 310 307 305 302 300 295 293 294 294 293 291 288 286 284 284 285 289 292 293 294 297 298 306 327 1 348 331 317 310 304 304 308 312 301 293 290 291 292 293 294 293 292 292 294 295 297 298 299 299 299 298 298 298 298 298 298 298 298 298 297 297 296 296 295 295 295 294 294 294 293 293 293 292 291 290 290 289 289 288 288
270 264 257 287 304 305 298 293 289 286 282 279 282 287 291 291 288 284 280 278 276 276 279 285 290 294 298 299 306 320 344 340 327 311 302 299 300 302 307 297 292 290 290 290 292 293 293 291 292 294 295 296 297 297 297 297 297 297 297 297 298 297 297 297 297 296 296 295 295 295 294 294 294 294 293 293 293 292 292 291 290 290 289 289 288 287
262 259 257 293 300 294 286 280 274 268 266 268 273 280 284 284 282 279 277 278 279 280 284 289 295 299 303 302 305 312 330 329 319 306 299 295 294 295 298 292 289 289 290 291 291 292 291 290 291 292 293 294 295 295 295 296 296 296 296 296 296 296 296 296 295 295 294 294 294 294 294 293 293 293 293 293 292 292 292 292 291 291 291 290 289 289
264 266 273 273 270 268 269 267 263 259 257 259 264 271 276 278 279 279 282 284 288 294 299 299 300 300 300 296 297 302 315 309 300 295 296 293 291 290 292 288 288 289 290 293 294 293 289 288 288 288 290 292 293 293 294 294 294 295 294 294 294 294 294 294 294 293 293 293 293 293 292 293 293 293 293 293 293 293 294 293 293 293 293 292 291 291
258 260 263 258 254 254 258 259 257 254 251 251 255 260 264 268 272 275 281 289 298 303 303 299 296 294 290 288 290 293 295 282 273 275 285 287 289 291 297 296 293 291 288 292 295 294 290 287 286 287 289 290 291 291 292 292 292 292 293 293 293 293 292 292 292 292 292 292 292 292 292 293 293 294 294 294 294 294 295 294 294 293 293 292 292 291
248 250 249 246 245 246 250 251 250 246 242 245 249 253 256 259 266 276 292 304 307 304 301 299 297 293 288 287 287 287 283 264 251 255 271 279 285 291 301 303 296 291 288 290 293 295 293 289 286 285 286 287 288 288 289 290 290 291 291 291 291 291 291 291 291 291 291 292 292 292 293 293 294 294 294 294 294 294 293 293 293 292 292 291 290 290
238 239 240 241 241 242 243 245 249 255 260 258 257 258 261 271 283 295 305 308 308 307 305 302 299 295 294 294 293 289 282 248 223 234 264 278 284 288 295 296 294 291 291 293 295 295 293 290 287 285 282 283 284 285 286 287 288 289 290 290 290 290 291 291 291 291 291 292 292 292 292 292 292 292 292 292 292 292 292 292 291 291 291 290 289 289
242 244 246 251 256 261 267 274 282 289 295 295 295 296 301 307 309 309 307 307 308 308 305 300 295 293 294 296 293 290 287 258 221 223 254 278 286 289 292 293 291 291 294 297 298 297 293 291 288 285 280 279 281 282 284 285 286 288 288 289 290 291 291 291 291 291 291 291 291 291 291 290 290 290 290 290 290 290 290 290 290 290 290 290 289 288
261 264 267 271 275 281 287 293 299 303 307 309 312 315 318 320 316 309 302 302 303 303 298 294 293 293 294 291 288 288 292 286 265 246 248 273 282 287 293 297 298 297 298 298 297 296 292 290 288 286 281 277 276 278 280 283 285 287 289 290 291 291 291 291 291 290 290 289 289 289 289 289 289 289 289 290 290 290 290 290 290 290 290 290 289 288
270 274 277 280 284 289 295 302 309 314 316 314 313 313 314 315 308 299 292 295 297 295 289 287 289 291 293 291 290 291 294 289 276 260 248 267 277 285 295 303 304 302 301 299 296 292 288 285 284 282 278 274 272 273 278 283 287 289 290 290 290 290 289 289 288 288 288 288 288 288 289 289 289 289 289 289 289 289 290 290 290 290 290 289 288 286
269 272 276 282 290 300 311 321 324 321 315 311 309 309 310 307 294 286 285 292 293 289 282 280 282 285 288 291 292 292 289 280 267 252 248 278 282 286 299 304 305 305 306 302 298 291 281 274 272 272 272 275 276 277 282 286 288 288 288 287 286 286 286 286 287 287 287 288 288 288 288 288 289 289 289 289 289 289 289 290 290 290 290 288 286 284
263 270 284 302 317 328 335 332 321 312 307 306 306 306 305 296 279 273 278 284 282 277 275 276 277 281 286 292 294 292 284 267 245 233 358 302 293 293 304 304 305 307 312 309 305 299 289 274 263 264 276 287 290 291 288 287 284 282 281 282 282 283 284 285 286 287 287 287 288 288 288 288 288 288 289 289 289 289 289 290 290 290 288 286 284 282
244 281 346 339 336 329 316 298 295 297 299 301 302 301 297 285 267 258 261 258 257 261 268 272 275 277 281 288 290 290 285 273 268 314 339 308 297 296 306 304 304 305 312 311 308 305 303 297 286 280 290 295 295 291 287 283 281 279 278 279 279 281 282 284 285 286 287 287 287 288 288 288 289 289 289 289 289 289 289 289 289 289 287 285 283 281
174 215 246 257 263 269 273 276 280 285 290 293 292 288 281 274 264 255 248 241 242 250 261 267 271 273 274 273 275 277 282 290 309 323 325 305 295 294 302 300 301 302 304 297 293 294 299 301 303 303 300 295 292 288 285 284 283 282 282 281 280 281 283 284 285 286 287 287 288 288 289 289 289 289 289 289 289 288 288 288 287 287 284 283 281 280
202 228 242 252 258 262 266 272 276 279 280 279 273 268 267 265 261 257 249 242 240 245 255 264 269 273 274 271 271 271 277 285 302 312 313 303 295 295 299 298 298 298 299 290 282 278 281 290 298 301 298 292 290 289 288 286 284 283 282 282 282 283 284 286 286 287 287 288 288 289 289 289 288 288 288 287 287 287 286 285 284 283 281 280 278 278
240 261 268 271 273 275 275 275 275 273 272 269 265 261 255 253 254 254 252 250 249 250 256 263 270 275 278 277 276 275 276 281 295 304 307 301 294 293 295 295 296 297 298 293 288 283 278 284 291 297 297 294 291 288 287 286 285 283 281 282 284 286 288 289 288 288 287 288 287 287 287 287 286 286 285 285 284 284 283 283 282 280 279 277 276 276
279 283 281 283 286 287 288 285 277 270 264 261 259 256 253 249 247 248 252 256 259 261 263 266 269 273 276 277 278 278 279 283 293 299 300 294 291 290 292 291 293 296 296 293 292 290 286 287 290 294 297 297 294 289 284 284 285 286 285 285 286 288 289 290 289 288 287 286 285 284 283 282 282 282 282 282 282 282 282 281 281 280 279 278 277 276
298 293 289 289 291 291 291 287 281 273 266 260 254 251 249 246 245 245 249 255 262 266 267 266 266 266 267 269 272 275 279 284 289 291 290 287 287 288 288 288 290 292 292 291 291 291 290 291 291 293 294 295 295 295 291 290 289 289 289 288 288 287 287 286 286 285 285 285 284 282 282 281 280 280 280 281 282 282 282 283 282 282 281 280 279 277
297 292 290 288 287 287 287 284 278 270 263 257 251 246 245 245 247 249 252 253 256 261 265 265 264 263 263 264 266 269 276 281 283 283 282 282 282 282 282 283 285 286 286 288 290 291 292 292 293 292 290 290 292 297 301 302 299 294 290 289 288 287 286 285 283 282 283 283 283 283 283 284 283 283 283 284 284 285 284 284 283 283 282 281 279 277
291 289 289 286 282 277 275 272 266 260 255 253 253 253 252 251 251 252 256 254 253 255 259 261 263 264 263 265 266 268 272 275 277 277 276 275 274 274 275 278 279 279 278 281 285 288 290 291 293 294 293 290 290 292 296 301 301 298 294 290 288 286 286 286 284 284 283 284 285 286 286 286 286 286 286 286 286 285 284 282 281 280 280 279 278 276
283 283 284 280 272 261 255 254 254 255 256 261 267 269 269 270 268 265 261 259 257 255 256 258 261 262 262 263 265 267 269 271 271 272 271 269 267 266 269 273 276 276 274 274 277 279 282 284 287 290 293 294 294 293 294 296 297 298 298 295 291 286 284 286 288 288 288 287 288 287 287 286 286 285 285 284 283 282 281 280 279 278 278 277 276 275
277 276 275 271 260 245 237 245 253 263 272 275 279 281 284 286 288 286 279 274 271 267 261 258 260 261 261 262 263 264 265 267 267 267 267 263 260 258 261 266 271 274 275 273 273 273 275 278 279 281 284 288 292 294 296 295 295 297 300 300 297 294 292 292 291 289 287 286 286 286 287 286 285 283 282 282 281 280 280 280 279 278 276 276 276 276
272 271 267 263 255 248 246 258 267 274 277 280 283 287 293 297 299 297 292 284 277 273 270 267 266 267 265 263 262 261 261 261 261 260 260 257 255 254 255 259 264 270 274 274 272 271 272 274 277 279 281 284 287 289 289 290 293 296 299 297 296 295 295 293 290 288 286 284 284 284 286 287 286 285 283 282 281 279 278 279 278 277 275 272 270 271
270 268 266 266 269 273 278 277 276 274 274 277 283 290 296 297 295 293 292 289 286 284 283 284 284 283 281 275 269 262 257 257 256 256 256 254 252 251 252 255 259 264 270 272 272 271 270 272 275 278 281 285 287 288 288 289 291 293 293 292 294 295 293 289 287 286 288 287 287 287 287 287 287 286 284 282 279 277 275 273 273 273 272 269 266 264
266 271 276 281 282 279 276 273 273 275 281 286 289 289 288 286 287 288 290 291 291 292 293 290 288 287 286 285 281 275 264 256 254 254 255 253 251 249 250 251 254 259 264 270 273 274 272 270 272 274 278 281 282 284 286 290 291 291 288 289 293 296 296 293 293 292 290 289 289 289 288 286 284 283 281 280 278 276 274 272 271 270 269 268 266 262
273 280 284 281 277 275 275 276 279 285 293 294 293 289 282 277 279 283 287 288 289 289 288 286 285 285 285 286 287 287 281 270 260 255 254 253 251 250 251 252 253 255 258 264 271 276 278 275 273 273 276 278 280 281 284 287 289 289 289 289 288 288 287 292 296 297 294 291 289 287 286 285 284 283 281 278 277 275 274 271 269 268 266 264 263 261
273 280 282 280 281 281 280 284 292 299 300 297 292 286 280 273 274 278 282 285 286 287 286 287 289 288 286 288 289 291 291 286 277 268 261 258 258 258 258 258 258 259 258 260 264 270 276 278 278 279 279 277 277 278 280 284 287 288 288 288 287 284 281 286 291 294 294 292 289 287 286 285 285 283 281 278 275 273 272 271 270 268 265 262 259 258
272 279 281 281 282 284 286 295 303 305 300 293 286 279 273 269 269 271 276 279 282 284 284 285 287 288 288 292 294 296 295 293 290 286 279 271 265 262 261 261 262 262 262 261 261 262 264 270 276 281 283 280 277 274 275 280 284 286 288 289 288 287 286 286 287 287 288 288 287 287 286 286 284 282 279 278 277 275 272 270 268 267 266 262 259 256
272 276 277 278 279 283 291 301 302 298 290 284 280 275 273 272 272 273 274 276 279 284 287 286 285 285 286 290 293 295 295 296 295 294 292 288 282 276 273 269 267 265 266 265 264 264 263 265 269 273 278 280 280 278 276 277 280 283 286 288 289 288 286 285 284 284 285 285 285 286 288 287 284 281 279 279 278 276 274 271 268 267 265 264 261 258
264 267 272 278 285 290 293 294 289 284 282 281 279 277 278 278 280 281 281 281 283 287 290 290 287 285 284 286 288 290 292 294 295 296 297 296 294 290 285 282 278 275 272 271 270 269 267 265 264 265 268 272 276 278 280 279 279 280 282 285 285 284 283 283 284 285 285 283 283 283 284 283 282 282 283 282 280 277 275 273 271 268 265 264 263 261
261 263 271 281 287 288 288 286 283 280 280 283 283 282 281 279 283 285 286 286 286 287 287 287 287 287 287 287 288 288 290 291 293 294 296 297 297 296 293 292 290 287 283 278 274 272 269 265 260 257 256 261 267 274 279 279 279 279 280 281 281 282 282 283 284 285 285 284 283 282 280 278 277 279 282 282 280 278 277 276 273 269 266 264 262 261
265 269 279 285 286 285 283 281 280 279 281 284 285 286 285 282 281 281 282 282 283 282 282 284 285 287 288 288 289 290 290 291 293 294 295 296 298 298 297 297 298 296 293 288 283 281 278 272 263 254 249 253 260 268 276 279 281 281 280 279 279 281 282 283 285 286 287 287 286 285 282 278 276 276 277 277 278 278 278 276 274 271 267 264 262 261
273 278 282 280 278 276 275 274 275 277 279 282 284 285 286 287 286 284 282 282 282 282 282 282 283 284 286 287 288 290 290 292 293 294 295 297 298 298 297 297 298 299 298 296 295 292 290 288 282 271 258 256 259 265 274 281 285 287 285 282 282 282 282 284 285 286 286 286 286 285 284 281 279 276 274 274 276 278 278 277 275 272 269 267 264 263